When you browse on this site, cookies collect data to enhance your experience and personalize the content and advertising you see.
Visit our Privacy Policy to learn more. By continuing to use the site, you agree to this use of cookies and data.

Hourly Weather Qui Nhon

Today, 26 September, Saturday

Time Temperature Precipitation Wind Pressure Humidity
00:00 +27°C° 0.1 mm 1 mps 755 mmHg 90%
01:00 +27°C° 0 mm 2 mps 754 mmHg 91%
02:00 +27°C° 0.3 mm 2 mps 754 mmHg 91%
03:00 +27°C° 0.3 mm 2 mps 754 mmHg 92%
04:00 +27°C° 0.3 mm 2 mps 754 mmHg 92%
05:00 +27°C° 0.2 mm 2 mps 754 mmHg 91%
06:00 +28°C° 0.2 mm 2 mps 754 mmHg 90%
07:00 +28°C° 0 mm 2 mps 755 mmHg 89%
08:00 +29°C° 0.4 mm 2 mps 755 mmHg 83%
09:00 +31°C° 0.4 mm 1 mps 755 mmHg 78%
10:00 +30°C° 0.4 mm 0 mps 755 mmHg 73%
11:00 +32°C° 0.5 mm 1 mps 754 mmHg 72%
12:00 +33°C° 0.5 mm 1 mps 754 mmHg 71%
13:00 +34°C° 0.5 mm 2 mps 753 mmHg 70%
14:00 +32°C° 0.5 mm 1 mps 753 mmHg 73%
15:00 +32°C° 0.5 mm 1 mps 752 mmHg 77%
16:00 +31°C° 0.5 mm 1 mps 752 mmHg 80%
17:00 +30°C° 0.1 mm 1 mps 752 mmHg 82%
18:00 +27°C° 0.1 mm 0 mps 753 mmHg 84%
19:00 +27°C° 0.1 mm 0 mps 753 mmHg 86%
20:00 +26°C° 0 mm 0 mps 754 mmHg 87%
21:00 +26°C° 0 mm 0 mps 754 mmHg 87%
22:00 +26°C° 0 mm 0 mps 755 mmHg 88%
23:00 +28°C° 0 mm 1 mps 754 mmHg 89%

Tomorrow, 27 September, Sunday

Time Temperature Precipitation Wind Pressure Humidity
00:00 +27°C° 0 mm 1 mps 754 mmHg 90%
01:00 +27°C° 0 mm 1 mps 754 mmHg 91%
02:00 +27°C° 0.2 mm 1 mps 753 mmHg 91%
03:00 +27°C° 0.2 mm 1 mps 753 mmHg 92%
04:00 +27°C° 0.2 mm 1 mps 753 mmHg 92%
05:00 +27°C° 0.3 mm 1 mps 753 mmHg 91%
06:00 +28°C° 0.3 mm 1 mps 754 mmHg 89%
07:00 +28°C° 0.3 mm 1 mps 754 mmHg 88%
08:00 +30°C° 0 mm 1 mps 754 mmHg 80%
09:00 +31°C° 0 mm 1 mps 754 mmHg 72%
10:00 +33°C° 0 mm 1 mps 754 mmHg 64%
11:00 +34°C° 0.5 mm 2 mps 754 mmHg 68%
12:00 +32°C° 0.5 mm 2 mps 753 mmHg 73%
13:00 +33°C° 0.5 mm 3 mps 753 mmHg 77%
14:00 +33°C° 1 mm 3 mps 752 mmHg 79%
15:00 +31°C° 1 mm 3 mps 752 mmHg 81%
16:00 +31°C° 1 mm 2 mps 752 mmHg 83%
17:00 +30°C° 1.1 mm 2 mps 752 mmHg 85%
18:00 +29°C° 1.1 mm 2 mps 753 mmHg 87%
19:00 +28°C° 1.1 mm 1 mps 753 mmHg 88%
20:00 +28°C° 1 mm 1 mps 754 mmHg 89%
21:00 +28°C° 1 mm 1 mps 754 mmHg 89%
22:00 +28°C° 1 mm 1 mps 755 mmHg 89%
23:00 +27°C° 0.1 mm 1 mps 754 mmHg 90%

Day after tomorrow, 28 September, Monday

Time Temperature Precipitation Wind Pressure Humidity
00:00 +27°C° 0.1 mm 1 mps 754 mmHg 91%
01:00 +27°C° 0.1 mm 1 mps 754 mmHg 92%
02:00 +27°C° 0 mm 1 mps 753 mmHg 92%
03:00 +27°C° 0 mm 1 mps 753 mmHg 92%
04:00 +26°C° 0 mm 1 mps 753 mmHg 92%
05:00 +27°C° 0.1 mm 1 mps 753 mmHg 91%
06:00 +27°C° 0.1 mm 1 mps 754 mmHg 90%
07:00 +28°C° 0.1 mm 1 mps 754 mmHg 89%
08:00 +29°C° 0.1 mm 1 mps 755 mmHg 82%
09:00 +31°C° 0.1 mm 1 mps 755 mmHg 75%
10:00 +32°C° 0.1 mm 1 mps 755 mmHg 69%
11:00 +33°C° 0 mm 1 mps 754 mmHg 67%
12:00 +34°C° 0 mm 2 mps 753 mmHg 66%
13:00 +34°C° 0 mm 2 mps 753 mmHg 65%
14:00 +34°C° 0 mm 3 mps 752 mmHg 68%
15:00 +33°C° 0 mm 3 mps 752 mmHg 70%
16:00 +33°C° 0 mm 3 mps 752 mmHg 73%
17:00 +30°C° 0 mm 3 mps 752 mmHg 78%
18:00 +29°C° 0 mm 3 mps 753 mmHg 83%
19:00 +28°C° 0 mm 3 mps 753 mmHg 88%
20:00 +28°C° 0.1 mm 3 mps 754 mmHg 88%
21:00 +28°C° 0.1 mm 2 mps 755 mmHg 89%
22:00 +28°C° 0.1 mm 2 mps 755 mmHg 89%
23:00 +28°C° 1.1 mm 2 mps 755 mmHg 89%

29 September, Tuesday

Time Temperature Precipitation Wind Pressure Humidity
00:00 +28°C° 1.1 mm 2 mps 754 mmHg 90%
01:00 +28°C° 1.1 mm 2 mps 754 mmHg 90%
02:00 +28°C° 1.6 mm 2 mps 753 mmHg 91%
03:00 +27°C° 1.6 mm 1 mps 753 mmHg 91%
04:00 +27°C° 1.6 mm 1 mps 753 mmHg 92%
05:00 +27°C° 1.6 mm 1 mps 753 mmHg 91%
06:00 +28°C° 1.6 mm 2 mps 754 mmHg 91%
07:00 +28°C° 1.6 mm 2 mps 754 mmHg 90%
08:00 +29°C° 1.3 mm 2 mps 754 mmHg 88%
09:00 +29°C° 1.3 mm 3 mps 754 mmHg 87%
10:00 +30°C° 1.3 mm 3 mps 754 mmHg 85%
11:00 +30°C° 0.6 mm 3 mps 754 mmHg 81%
12:00 +31°C° 0.6 mm 3 mps 753 mmHg 77%
13:00 +32°C° 0.6 mm 2 mps 752 mmHg 73%
14:00 +32°C° 0.2 mm 2 mps 752 mmHg 72%
15:00 +32°C° 0.2 mm 2 mps 752 mmHg 71%
16:00 +32°C° 0.2 mm 2 mps 752 mmHg 70%
17:00 +30°C° 0 mm 2 mps 752 mmHg 73%
18:00 +29°C° 0 mm 3 mps 753 mmHg 77%
19:00 +28°C° 0 mm 3 mps 753 mmHg 80%
20:00 +28°C° 0.3 mm 3 mps 754 mmHg 81%
21:00 +27°C° 0.3 mm 3 mps 754 mmHg 83%
22:00 +27°C° 0.3 mm 3 mps 754 mmHg 84%
23:00 +27°C° 0 mm 3 mps 754 mmHg 85%

30 September, Wednesday

Time Temperature Precipitation Wind Pressure Humidity
00:00 +27°C° 0 mm 3 mps 754 mmHg 85%
01:00 +26°C° 0 mm 2 mps 753 mmHg 86%
02:00 +26°C° 0 mm 2 mps 753 mmHg 85%
03:00 +26°C° 0 mm 2 mps 753 mmHg 85%
04:00 +26°C° 0 mm 3 mps 753 mmHg 84%
05:00 +27°C° 0 mm 3 mps 753 mmHg 82%
06:00 +28°C° 0 mm 3 mps 753 mmHg 80%
07:00 +28°C° 0 mm 3 mps 754 mmHg 77%
08:00 +29°C° 0 mm 3 mps 754 mmHg 74%
09:00 +32°C° 0 mm 4 mps 754 mmHg 71%
10:00 +33°C° 0 mm 4 mps 754 mmHg 67%
11:00 +33°C° 0 mm 4 mps 753 mmHg 66%
12:00 +34°C° 0 mm 3 mps 752 mmHg 65%
13:00 +34°C° 0 mm 3 mps 752 mmHg 63%
14:00 +34°C° 0.1 mm 3 mps 751 mmHg 65%
15:00 +34°C° 0.1 mm 3 mps 751 mmHg 67%
16:00 +34°C° 0.1 mm 3 mps 751 mmHg 69%
17:00 +33°C° 0.5 mm 4 mps 752 mmHg 73%
18:00 +30°C° 0.5 mm 4 mps 752 mmHg 77%
19:00 +29°C° 0.5 mm 4 mps 753 mmHg 81%
20:00 +29°C° 0.5 mm 4 mps 753 mmHg 81%
21:00 +28°C° 0.5 mm 3 mps 754 mmHg 82%
22:00 +28°C° 0.5 mm 2 mps 754 mmHg 83%
23:00 +28°C° 0.2 mm 3 mps 754 mmHg 85%

1 October, Thursday

Time Temperature Precipitation Wind Pressure Humidity
00:00 +27°C° 0.2 mm 3 mps 753 mmHg 87%
01:00 +27°C° 0.2 mm 3 mps 753 mmHg 89%
02:00 +27°C° 0.1 mm 3 mps 752 mmHg 89%
03:00 +27°C° 0.1 mm 3 mps 752 mmHg 89%
04:00 +27°C° 0.1 mm 3 mps 752 mmHg 89%
05:00 +27°C° 0 mm 3 mps 752 mmHg 88%
06:00 +27°C° 0 mm 2 mps 753 mmHg 88%
07:00 +28°C° 0 mm 2 mps 753 mmHg 87%
08:00 +29°C° 0 mm 2 mps 754 mmHg 83%
09:00 +30°C° 0 mm 2 mps 754 mmHg 78%
10:00 +31°C° 0 mm 2 mps 754 mmHg 74%
11:00 +32°C° 0.1 mm 2 mps 753 mmHg 71%
12:00 +32°C° 0.1 mm 2 mps 753 mmHg 68%
13:00 +34°C° 0.1 mm 2 mps 752 mmHg 65%
14:00 +34°C° 0.1 mm 2 mps 752 mmHg 66%
15:00 +34°C° 0.1 mm 2 mps 751 mmHg 66%
16:00 +34°C° 0.1 mm 2 mps 751 mmHg 67%
17:00 +32°C° 0.1 mm 2 mps 752 mmHg 73%
18:00 +30°C° 0.1 mm 1 mps 752 mmHg 80%
19:00 +29°C° 0.1 mm 1 mps 753 mmHg 86%
20:00 +29°C° 0 mm 1 mps 753 mmHg 87%
21:00 +28°C° 0 mm 1 mps 754 mmHg 87%
22:00 +28°C° 0 mm 1 mps 754 mmHg 88%
23:00 +28°C° 0 mm 1 mps 754 mmHg 89%
Show more